STARLINK-32407 (62172 NORAD) Tracking and Keplerian Element Data

This shows tracking and keplerian element data for the satellite.

Feedback or suggestion? Click here.




ElementValue
Catalog62172
NameSTARLINK-32407
Epoch Orbit593
Epoch Day34.83335648
Epoch Year2025
RAAN90.2836
Inclination69.9994
Eccentricity0.0003406
Argument of Perigee276.6436
Mean Anonmoly165.5829
Mean Motion15.15235599
Decay Rate-0.01414173
L11 62172U 24225K 25034.83335648 -.01414173 00000+0 -81760-1 0 9992
L22 62172 69.9994 90.2836 0003406 276.6436 165.5829 15.15235599 5939



Live tracking and technical data element details for STARLINK-32407 (NORAD 62172). STARLINK-32407 can be tracked NOW for your location showing map with azimuth and elevation plus other details from your city location.







IsCatalogInMostPopularTable: catalog: 62172, numindb: 18
Update: records affected: 1



GetName: 62172 STARLINK-32407

Hit Count: updated at: Sat, 24 May 2025 16:24:39 GMT